Weather in Savvushka

Russia / Altai Krai     51°21′14″N   82°08′41″E
temp.,
°C
wind,
m/s
gust,
m/s
humid.,
%
clouds,
%
prec.,
mm/h
press.,
hPa
HPBL,
m
8 may, sat
sat801:00+9nne117687 0.0 102010
04:00+8ne1171100 0.0 102011
07:00+8ne227478 0.0 102130
10:00+14nne464777 0.0 1020777
13:00+17n55370 0.0 10201124
16:00+18nne45345 0.0 10191243
19:00+17ne35420 0.0 1019843
22:00+11ene22520 0.0 101914
9 may, sun
sun901:00+10ene22547 0.0 101919
04:00+9ene2253100 0.0 101816
07:00+9ne225999 0.0 101725
10:00+16ne364296 0.0 1016485
13:00+20ne543445 0.0 10141052
16:00+21ne543288 0.0 10131364
19:00+18ne5845100 0.0 1013548
22:00+12ne4116014 0.0 1013240
10 may, mon
mon1001:00+10ne6146891 0.0 1013393
04:00+7ne51169100 0.0 1013253
07:00+6ne4971100 0.0 1013238
10:00+11ne6960100 0.0 1012417
13:00+16ne6647100 0.0 1010807
16:00+18ne664375 0.0 10091071
19:00+15ne711495 0.0 1009746
22:00+10ne715480 0.0 1009560
11 may, tue
tue1101:00+8ne614545 0.0 1010450
04:00+6nne613640 0.0 1011376
07:00+5nne514705 0.0 1013471
10:00+10nne8125252 0.0 1013789
13:00+13nne794320 0.0 10141372
16:00+15nne7838100 0.0 10131863
19:00+14n5844100 0.0 10142062
22:00+9n3105984 0.0 1016220
12 may, wed
wed1201:00+7nne4106832 0.0 1017273
04:00+4n33815 0.0 101847
07:00+5n248366 0.0 1020143
10:00+8n46695 0.1 1021882
13:00+13n5739100 0.2 10202353
16:00+14n463484 0.0 10192477
19:00+14nne353677 0.0 10182236
22:00+8e115298 0.0 101910